Location: Newark
(35.6799°N, 139.7636°E)
Time: 07:40:26
(UTC+00:00)

Explorer 7 - Pass Details

Date: 08 December 2019
Orbit: 485 x 679 km, 50.3° (Epoch: 29 January)

Event Time Altitude Azimuth Distance (km) Brightness Sun altitude
Rises 10:01:18 0° 298° (WNW) 3,032 11.3 -30.5°
Reaches altitude 10° 10:04:48 10° 323° (NW) 2,114 10.1 -31.2°
Enters shadow 10:05:45 12° 334° (NNW) 1,955 9.8 -31.4°
Maximum altitude 10:07:24 14° 356° (N) 1,836 - -31.7°
Drops below altitude 10° 10:09:59 10° 28° (NNE) 2,089 - -32.3°
Sets 10:13:24 0° 53° (NE) 2,972 - -33.0°
